Year,Month,Day,Hour,Minute,Value (Times are PST for windspeed in km/hr)
2010,04,02,00,00,0.00
2010,04,02,00,01,0.70
2010,04,02,00,02,0.00
2010,04,02,00,03,0.10
2010,04,02,00,04,0.30
2010,04,02,00,05,5.40
2010,04,02,00,06,1.90
2010,04,02,00,07,1.90
2010,04,02,00,08,0.00
2010,04,02,00,09,0.10
2010,04,02,00,10,0.00
2010,04,02,00,11,0.00
2010,04,02,00,12,5.20
2010,04,02,00,13,3.00
2010,04,02,00,14,0.60
2010,04,02,00,15,6.40
2010,04,02,00,16,8.20
2010,04,02,00,17,5.30
2010,04,02,00,18,1.30
2010,04,02,00,19,2.50
2010,04,02,00,20,5.10
2010,04,02,00,21,8.90
2010,04,02,00,22,2.70
2010,04,02,00,23,0.30
2010,04,02,00,24,5.60
2010,04,02,00,25,4.70
2010,04,02,00,26,0.80
2010,04,02,00,27,1.70
2010,04,02,00,28,3.80
2010,04,02,00,29,0.20
2010,04,02,00,30,0.10
2010,04,02,00,31,0.70
2010,04,02,00,32,4.90
2010,04,02,00,33,0.40
2010,04,02,00,34,0.60
2010,04,02,00,35,0.30
2010,04,02,00,36,0.20
2010,04,02,00,37,3.60
2010,04,02,00,38,1.30
2010,04,02,00,39,2.00
2010,04,02,00,40,1.00
2010,04,02,00,41,0.20
2010,04,02,00,42,1.10
2010,04,02,00,43,1.40
2010,04,02,00,44,3.60
2010,04,02,00,45,2.20
2010,04,02,00,46,0.40
2010,04,02,00,47,0.10
2010,04,02,00,48,0.10
2010,04,02,00,49,4.20
2010,04,02,00,50,1.30
2010,04,02,00,51,5.60
2010,04,02,00,52,0.70
2010,04,02,00,53,1.30
2010,04,02,00,54,0.00
2010,04,02,00,55,0.20
2010,04,02,00,56,1.90
2010,04,02,00,57,0.00
2010,04,02,00,58,1.00
2010,04,02,00,59,0.30
2010,04,02,01,00,0.70
2010,04,02,01,01,0.90
2010,04,02,01,02,0.10
2010,04,02,01,03,0.00
2010,04,02,01,04,1.70
2010,04,02,01,05,0.00
2010,04,02,01,06,0.80
2010,04,02,01,07,0.80
2010,04,02,01,08,5.00
2010,04,02,01,09,5.40
2010,04,02,01,10,1.20
2010,04,02,01,11,0.30
2010,04,02,01,12,5.40
2010,04,02,01,13,2.70
2010,04,02,01,14,1.80
2010,04,02,01,15,2.20
2010,04,02,01,16,4.70
2010,04,02,01,17,4.20
2010,04,02,01,18,0.00
2010,04,02,01,19,0.20
2010,04,02,01,20,2.60
2010,04,02,01,21,3.20
2010,04,02,01,22,2.30
2010,04,02,01,23,5.90
2010,04,02,01,24,7.10
2010,04,02,01,25,4.80
2010,04,02,01,26,0.60
2010,04,02,01,27,0.70
2010,04,02,01,28,0.00
2010,04,02,01,29,3.50
2010,04,02,01,30,3.60
2010,04,02,01,31,5.30
2010,04,02,01,32,3.80
2010,04,02,01,33,5.90
2010,04,02,01,34,4.70
2010,04,02,01,35,2.70
2010,04,02,01,36,3.30
2010,04,02,01,37,2.80
2010,04,02,01,38,5.70
2010,04,02,01,39,3.20
2010,04,02,01,40,1.50
2010,04,02,01,41,5.80
2010,04,02,01,42,3.20
2010,04,02,01,43,3.60
2010,04,02,01,44,4.90
2010,04,02,01,45,1.70
2010,04,02,01,46,2.50
2010,04,02,01,47,2.40
2010,04,02,01,48,0.10
2010,04,02,01,49,0.00
2010,04,02,01,50,0.00
2010,04,02,01,51,3.10
2010,04,02,01,52,6.00
2010,04,02,01,53,2.80
2010,04,02,01,54,0.70
2010,04,02,01,55,0.20
2010,04,02,01,56,0.80
2010,04,02,01,57,1.30
2010,04,02,01,58,0.10
2010,04,02,01,59,0.00
2010,04,02,02,00,0.70
2010,04,02,02,01,4.10
2010,04,02,02,02,4.30
2010,04,02,02,03,0.40
2010,04,02,02,04,0.90
2010,04,02,02,05,3.90
2010,04,02,02,06,4.10
2010,04,02,02,07,3.00
2010,04,02,02,08,3.10
2010,04,02,02,09,3.00
2010,04,02,02,10,5.10
2010,04,02,02,11,3.60
2010,04,02,02,12,4.90
2010,04,02,02,13,7.60
2010,04,02,02,14,7.90
2010,04,02,02,15,8.50
2010,04,02,02,16,2.70
2010,04,02,02,17,9.00
2010,04,02,02,18,6.00
2010,04,02,02,19,2.80
2010,04,02,02,20,1.90
2010,04,02,02,21,3.10
2010,04,02,02,22,4.90
2010,04,02,02,23,2.70
2010,04,02,02,24,3.10
2010,04,02,02,25,5.20
2010,04,02,02,26,2.90
2010,04,02,02,27,7.90
2010,04,02,02,28,3.60
2010,04,02,02,29,3.90
2010,04,02,02,30,5.20
2010,04,02,02,31,6.20
2010,04,02,02,32,4.90
2010,04,02,02,33,6.80
2010,04,02,02,34,4.70
2010,04,02,02,35,2.00
2010,04,02,02,36,8.20
2010,04,02,02,37,4.70
2010,04,02,02,38,0.50
2010,04,02,02,39,0.40
2010,04,02,02,40,0.50
2010,04,02,02,41,1.00
2010,04,02,02,42,4.50
2010,04,02,02,43,7.10
2010,04,02,02,44,4.70
2010,04,02,02,45,5.50
2010,04,02,02,46,1.30
2010,04,02,02,47,7.00
2010,04,02,02,48,3.50
2010,04,02,02,49,2.00
2010,04,02,02,50,3.10
2010,04,02,02,51,7.90
2010,04,02,02,52,6.10
2010,04,02,02,53,0.60
2010,04,02,02,54,7.20
2010,04,02,02,55,3.20
2010,04,02,02,56,2.70
2010,04,02,02,57,3.30
2010,04,02,02,58,2.20
2010,04,02,02,59,4.70
2010,04,02,03,00,7.40
2010,04,02,03,01,6.30
2010,04,02,03,02,2.80
2010,04,02,03,03,0.80
2010,04,02,03,04,5.20
2010,04,02,03,05,9.10
2010,04,02,03,06,3.10
2010,04,02,03,07,2.80
2010,04,02,03,08,6.10
2010,04,02,03,09,3.50
2010,04,02,03,10,1.10
2010,04,02,03,11,2.60
2010,04,02,03,12,3.20
2010,04,02,03,13,1.70
2010,04,02,03,14,0.30
2010,04,02,03,15,2.30
2010,04,02,03,16,1.90
2010,04,02,03,17,1.90
2010,04,02,03,18,0.80
2010,04,02,03,19,1.20
2010,04,02,03,20,1.30
2010,04,02,03,21,1.80
2010,04,02,03,22,0.20
2010,04,02,03,23,0.30
2010,04,02,03,24,0.40
2010,04,02,03,25,0.60
2010,04,02,03,26,1.00
2010,04,02,03,27,0.00
2010,04,02,03,28,0.30
2010,04,02,03,29,1.40
2010,04,02,03,30,1.80
2010,04,02,03,31,0.00
2010,04,02,03,32,0.00
2010,04,02,03,33,0.10
2010,04,02,03,34,1.90
2010,04,02,03,35,3.00
2010,04,02,03,36,1.30
2010,04,02,03,37,1.50
2010,04,02,03,38,0.30
2010,04,02,03,39,0.90
2010,04,02,03,40,0.90
2010,04,02,03,41,0.20
2010,04,02,03,42,0.00
2010,04,02,03,43,0.00
2010,04,02,03,44,0.00
2010,04,02,03,45,0.00
2010,04,02,03,46,0.00
2010,04,02,03,47,0.60
2010,04,02,03,48,5.20
2010,04,02,03,49,4.30
2010,04,02,03,50,4.90
2010,04,02,03,51,4.60
2010,04,02,03,52,3.00
2010,04,02,03,53,0.90
2010,04,02,03,54,0.00
2010,04,02,03,55,0.20
2010,04,02,03,56,2.10
2010,04,02,03,57,7.00
2010,04,02,03,58,6.30
2010,04,02,03,59,7.40
2010,04,02,04,00,9.00
2010,04,02,04,01,7.30
2010,04,02,04,02,6.00
2010,04,02,04,03,9.20
2010,04,02,04,04,8.20
2010,04,02,04,05,6.20
2010,04,02,04,06,1.90
2010,04,02,04,07,2.50
2010,04,02,04,08,5.80
2010,04,02,04,09,5.60
2010,04,02,04,10,9.00
2010,04,02,04,11,6.80
2010,04,02,04,12,7.90
2010,04,02,04,13,7.80
2010,04,02,04,14,4.40
2010,04,02,04,15,4.20
2010,04,02,04,16,2.90
2010,04,02,04,17,3.10
2010,04,02,04,18,4.90
2010,04,02,04,19,4.60
2010,04,02,04,20,1.90
2010,04,02,04,21,6.70
2010,04,02,04,22,7.90
2010,04,02,04,23,8.80
2010,04,02,04,24,5.90
2010,04,02,04,25,4.30
2010,04,02,04,26,4.00
2010,04,02,04,27,8.80
2010,04,02,04,28,6.80
2010,04,02,04,29,3.60
2010,04,02,04,30,3.10
2010,04,02,04,31,3.90
2010,04,02,04,32,2.80
2010,04,02,04,33,0.30
2010,04,02,04,34,3.30
2010,04,02,04,35,4.50
2010,04,02,04,36,5.70
2010,04,02,04,37,3.80
2010,04,02,04,38,9.80
2010,04,02,04,39,6.60
2010,04,02,04,40,1.20
2010,04,02,04,41,6.00
2010,04,02,04,42,4.70
2010,04,02,04,43,2.50
2010,04,02,04,44,1.90
2010,04,02,04,45,6.30
2010,04,02,04,46,5.10
2010,04,02,04,47,1.20
2010,04,02,04,48,0.20
2010,04,02,04,49,2.00
2010,04,02,04,50,3.30
2010,04,02,04,51,0.80
2010,04,02,04,52,3.10
2010,04,02,04,53,5.90
2010,04,02,04,54,7.40
2010,04,02,04,55,10.20
2010,04,02,04,56,16.90
2010,04,02,04,57,8.40
2010,04,02,04,58,9.50
2010,04,02,04,59,7.90
2010,04,02,05,00,8.90
2010,04,02,05,01,9.90
2010,04,02,05,02,13.60
2010,04,02,05,03,11.40
2010,04,02,05,04,9.60
2010,04,02,05,05,14.80
2010,04,02,05,06,18.90
2010,04,02,05,07,8.80
2010,04,02,05,08,11.80
2010,04,02,05,09,11.00
2010,04,02,05,10,13.80
2010,04,02,05,11,7.30
2010,04,02,05,12,16.40
2010,04,02,05,13,12.00
2010,04,02,05,14,15.40
2010,04,02,05,15,8.80
2010,04,02,05,16,17.50
2010,04,02,05,17,15.10
2010,04,02,05,18,19.10
2010,04,02,05,19,10.40
2010,04,02,05,20,7.70
2010,04,02,05,21,16.20
2010,04,02,05,22,14.30
2010,04,02,05,23,16.60
2010,04,02,05,24,14.30
2010,04,02,05,25,13.00
2010,04,02,05,26,15.40
2010,04,02,05,27,17.10
2010,04,02,05,28,12.40
2010,04,02,05,29,12.40
2010,04,02,05,30,14.60
2010,04,02,05,31,17.70
2010,04,02,05,32,14.10
2010,04,02,05,33,16.40
2010,04,02,05,34,18.80
2010,04,02,05,35,12.80
2010,04,02,05,36,21.40
2010,04,02,05,37,17.30
2010,04,02,05,38,17.50
2010,04,02,05,39,17.20
2010,04,02,05,40,13.80
2010,04,02,05,41,17.90
2010,04,02,05,42,17.90
2010,04,02,05,43,17.40
2010,04,02,05,44,12.60
2010,04,02,05,45,10.40
2010,04,02,05,46,10.10
2010,04,02,05,47,13.20
2010,04,02,05,48,10.70
2010,04,02,05,49,13.80
2010,04,02,05,50,17.20
2010,04,02,05,51,13.40
2010,04,02,05,52,18.30
2010,04,02,05,53,14.30
2010,04,02,05,54,16.00
2010,04,02,05,55,19.30
2010,04,02,05,56,18.80
2010,04,02,05,57,9.70
2010,04,02,05,58,13.90
2010,04,02,05,59,15.10
2010,04,02,06,00,15.10
2010,04,02,06,01,22.50
2010,04,02,06,02,21.10
2010,04,02,06,03,18.40
2010,04,02,06,04,13.00
2010,04,02,06,05,14.60
2010,04,02,06,06,12.60
2010,04,02,06,07,13.80
2010,04,02,06,08,15.20
2010,04,02,06,09,16.90
2010,04,02,06,10,22.50
2010,04,02,06,11,22.80
2010,04,02,06,12,18.80
2010,04,02,06,13,21.70
2010,04,02,06,14,25.50
2010,04,02,06,15,17.70
2010,04,02,06,16,20.00
2010,04,02,06,17,31.60
2010,04,02,06,18,20.40
2010,04,02,06,19,18.50
2010,04,02,06,20,19.90
2010,04,02,06,21,23.60
2010,04,02,06,22,17.50
2010,04,02,06,23,24.30
2010,04,02,06,24,27.80
2010,04,02,06,25,26.20
2010,04,02,06,26,15.60
2010,04,02,06,27,20.80
2010,04,02,06,28,27.20
2010,04,02,06,29,29.20
2010,04,02,06,30,25.00
2010,04,02,06,31,22.00
2010,04,02,06,32,24.80
2010,04,02,06,33,25.50
2010,04,02,06,34,24.50
2010,04,02,06,35,27.00
2010,04,02,06,36,22.20
2010,04,02,06,37,25.10
2010,04,02,06,38,19.00
2010,04,02,06,39,29.50
2010,04,02,06,40,24.50
2010,04,02,06,41,21.80
2010,04,02,06,42,22.20
2010,04,02,06,43,25.80
2010,04,02,06,44,21.90
2010,04,02,06,45,22.80
2010,04,02,06,46,31.10
2010,04,02,06,47,21.50
2010,04,02,06,48,21.90
2010,04,02,06,49,23.30
2010,04,02,06,50,25.70
2010,04,02,06,51,25.10
2010,04,02,06,52,30.00
2010,04,02,06,53,27.20
2010,04,02,06,54,30.80
2010,04,02,06,55,29.60
2010,04,02,06,56,28.00
2010,04,02,06,57,22.10
2010,04,02,06,58,24.50
2010,04,02,06,59,22.90
2010,04,02,07,00,24.50
2010,04,02,07,01,32.80
2010,04,02,07,02,17.20
2010,04,02,07,03,31.00
2010,04,02,07,04,29.80
2010,04,02,07,05,35.40
2010,04,02,07,06,30.80
2010,04,02,07,07,26.70
2010,04,02,07,08,20.40
2010,04,02,07,09,26.60
2010,04,02,07,10,33.00
2010,04,02,07,11,24.80
2010,04,02,07,12,34.00
2010,04,02,07,13,31.20
2010,04,02,07,14,25.00
2010,04,02,07,15,22.40
2010,04,02,07,16,27.50
2010,04,02,07,17,28.10
2010,04,02,07,18,26.40
2010,04,02,07,19,38.70
2010,04,02,07,20,16.80
2010,04,02,07,21,24.50
2010,04,02,07,22,25.80
2010,04,02,07,23,34.00
2010,04,02,07,24,33.70
2010,04,02,07,25,30.90
2010,04,02,07,26,28.50
2010,04,02,07,27,17.40
2010,04,02,07,28,24.50
2010,04,02,07,29,22.20
2010,04,02,07,30,22.90
2010,04,02,07,31,28.40
2010,04,02,07,32,27.60
2010,04,02,07,33,28.90
2010,04,02,07,34,26.30
2010,04,02,07,35,22.20
2010,04,02,07,36,21.10
2010,04,02,07,37,27.90
2010,04,02,07,38,30.90
2010,04,02,07,39,26.40
2010,04,02,07,40,21.20
2010,04,02,07,41,32.10
2010,04,02,07,42,27.40
2010,04,02,07,43,20.90
2010,04,02,07,44,26.40
2010,04,02,07,45,33.60
2010,04,02,07,46,22.90
2010,04,02,07,47,33.20
2010,04,02,07,48,27.90
2010,04,02,07,49,28.60
2010,04,02,07,50,31.40
2010,04,02,07,51,35.30
2010,04,02,07,52,30.60
2010,04,02,07,53,23.50
2010,04,02,07,54,26.90
2010,04,02,07,55,21.80
2010,04,02,07,56,26.10
2010,04,02,07,57,27.40
2010,04,02,07,58,28.70
2010,04,02,07,59,18.30
2010,04,02,08,00,24.60
2010,04,02,08,01,28.70
2010,04,02,08,02,24.90
2010,04,02,08,03,22.70
2010,04,02,08,04,29.50
2010,04,02,08,05,24.20
2010,04,02,08,06,26.10
2010,04,02,08,07,22.50
2010,04,02,08,08,25.00
2010,04,02,08,09,31.40
2010,04,02,08,10,27.90
2010,04,02,08,11,22.80
2010,04,02,08,12,19.30
2010,04,02,08,13,24.80
2010,04,02,08,14,24.60
2010,04,02,08,15,20.60
2010,04,02,08,16,17.90
2010,04,02,08,17,18.50
2010,04,02,08,18,29.80
2010,04,02,08,19,26.90
2010,04,02,08,20,29.00
2010,04,02,08,21,19.60
2010,04,02,08,22,25.20
2010,04,02,08,23,16.30
2010,04,02,08,24,20.20
2010,04,02,08,25,29.70
2010,04,02,08,26,19.90
2010,04,02,08,27,27.70
2010,04,02,08,28,29.80
2010,04,02,08,29,32.80
2010,04,02,08,30,21.10
2010,04,02,08,31,20.30
2010,04,02,08,32,27.40
2010,04,02,08,33,24.50
2010,04,02,08,34,25.70
2010,04,02,08,35,17.20
2010,04,02,08,36,22.30
2010,04,02,08,37,27.40
2010,04,02,08,38,26.80
2010,04,02,08,39,28.30
2010,04,02,08,40,23.00
2010,04,02,08,41,26.00
2010,04,02,08,42,27.00
2010,04,02,08,43,24.20
2010,04,02,08,44,25.60
2010,04,02,08,45,11.10
2010,04,02,08,46,25.80
2010,04,02,08,47,20.90
2010,04,02,08,48,21.50
2010,04,02,08,49,26.40
2010,04,02,08,50,12.20
2010,04,02,08,51,18.10
2010,04,02,08,52,18.40
2010,04,02,08,53,20.80
2010,04,02,08,54,15.90
2010,04,02,08,55,18.80
2010,04,02,08,56,30.20
2010,04,02,08,57,21.80
2010,04,02,08,58,19.10
2010,04,02,08,59,20.60
2010,04,02,09,00,26.60
2010,04,02,09,01,19.70
2010,04,02,09,02,21.70
2010,04,02,09,03,22.40
2010,04,02,09,04,19.90
2010,04,02,09,05,29.30
2010,04,02,09,06,28.30
2010,04,02,09,07,16.00
2010,04,02,09,08,18.20
2010,04,02,09,09,26.60
2010,04,02,09,10,31.50
2010,04,02,09,11,21.20
2010,04,02,09,12,20.80
2010,04,02,09,13,19.80
2010,04,02,09,14,31.30
2010,04,02,09,15,27.40
2010,04,02,09,16,28.60
2010,04,02,09,17,28.40
2010,04,02,09,18,27.00
2010,04,02,09,19,27.60
2010,04,02,09,20,34.50
2010,04,02,09,21,19.20
2010,04,02,09,22,28.30
2010,04,02,09,23,20.30
2010,04,02,09,24,24.30
2010,04,02,09,25,29.40
2010,04,02,09,26,24.60
2010,04,02,09,27,21.80
2010,04,02,09,28,21.80
2010,04,02,09,29,13.90
2010,04,02,09,30,30.70
2010,04,02,09,31,26.50
2010,04,02,09,32,22.50
2010,04,02,09,33,27.50
2010,04,02,09,34,12.70
2010,04,02,09,35,13.00
2010,04,02,09,36,23.80
2010,04,02,09,37,18.30
2010,04,02,09,38,14.10
2010,04,02,09,39,18.00
2010,04,02,09,40,20.60
2010,04,02,09,41,19.40
2010,04,02,09,42,25.70
2010,04,02,09,43,24.10
2010,04,02,09,44,22.50
2010,04,02,09,45,18.70
2010,04,02,09,46,27.20
2010,04,02,09,47,17.80
2010,04,02,09,48,26.80
2010,04,02,09,49,21.20
2010,04,02,09,50,22.90
2010,04,02,09,51,23.70
2010,04,02,09,52,20.40
2010,04,02,09,53,24.10
2010,04,02,09,54,16.10
2010,04,02,09,55,8.80
2010,04,02,09,56,15.60
2010,04,02,09,57,26.10
2010,04,02,09,58,20.10
2010,04,02,09,59,17.50
2010,04,02,10,00,18.40
2010,04,02,10,01,21.60
2010,04,02,10,02,17.00
2010,04,02,10,03,21.20
2010,04,02,10,04,17.70
2010,04,02,10,05,21.40
2010,04,02,10,06,20.70
2010,04,02,10,07,27.10
2010,04,02,10,08,28.60
2010,04,02,10,09,18.90
2010,04,02,10,10,27.70
2010,04,02,10,11,25.00
2010,04,02,10,12,25.60
2010,04,02,10,13,23.60
2010,04,02,10,14,27.10
2010,04,02,10,15,35.90
2010,04,02,10,16,19.60
2010,04,02,10,17,21.90
2010,04,02,10,18,35.50
2010,04,02,10,19,27.70
2010,04,02,10,20,17.70
2010,04,02,10,21,23.60
2010,04,02,10,22,21.70
2010,04,02,10,23,27.40
2010,04,02,10,24,28.10
2010,04,02,10,25,26.40
2010,04,02,10,26,29.70
2010,04,02,10,27,19.90
2010,04,02,10,28,23.30
2010,04,02,10,29,42.20
2010,04,02,10,30,24.30
2010,04,02,10,31,23.70
2010,04,02,10,32,27.80
2010,04,02,10,33,20.20
2010,04,02,10,34,18.00
2010,04,02,10,35,32.30
2010,04,02,10,36,25.30
2010,04,02,10,37,14.20
2010,04,02,10,38,6.50
2010,04,02,10,39,32.30
2010,04,02,10,40,26.50
2010,04,02,10,41,27.80
2010,04,02,10,42,29.10
2010,04,02,10,43,33.10
2010,04,02,10,44,32.10
2010,04,02,10,45,31.80
2010,04,02,10,46,24.70
2010,04,02,10,47,32.00
2010,04,02,10,48,29.10
2010,04,02,10,49,9.70
2010,04,02,10,50,21.20
2010,04,02,10,51,36.50
2010,04,02,10,52,36.60
2010,04,02,10,53,26.30
2010,04,02,10,54,17.40
2010,04,02,10,55,18.80
2010,04,02,10,56,24.40
2010,04,02,10,57,29.40
2010,04,02,10,58,23.50
2010,04,02,10,59,16.90
2010,04,02,11,00,19.50
2010,04,02,11,01,25.40
2010,04,02,11,02,15.90
2010,04,02,11,03,12.10
2010,04,02,11,04,17.30
2010,04,02,11,05,20.50
2010,04,02,11,06,26.60
2010,04,02,11,07,17.90
2010,04,02,11,08,18.00
2010,04,02,11,09,28.70
2010,04,02,11,10,18.40
2010,04,02,11,11,19.30
2010,04,02,11,12,15.60
2010,04,02,11,13,36.70
2010,04,02,11,14,20.00
2010,04,02,11,15,28.80
2010,04,02,11,16,23.00
2010,04,02,11,17,27.90
2010,04,02,11,18,20.00
2010,04,02,11,19,26.60
2010,04,02,11,20,30.00
2010,04,02,11,21,27.60
2010,04,02,11,22,12.50
2010,04,02,11,23,13.40
2010,04,02,11,24,15.10
2010,04,02,11,25,18.60
2010,04,02,11,26,22.80
2010,04,02,11,27,23.50
2010,04,02,11,28,14.40
2010,04,02,11,29,25.20
2010,04,02,11,30,29.20
2010,04,02,11,31,23.90
2010,04,02,11,32,30.20
2010,04,02,11,33,26.70
2010,04,02,11,34,15.40
2010,04,02,11,35,26.10
2010,04,02,11,36,7.80
2010,04,02,11,37,26.50
2010,04,02,11,38,20.90
2010,04,02,11,39,28.50
2010,04,02,11,40,25.20
2010,04,02,11,41,24.10
2010,04,02,11,42,31.10
2010,04,02,11,43,23.20
2010,04,02,11,44,18.50
2010,04,02,11,45,10.50
2010,04,02,11,46,12.50
2010,04,02,11,47,26.80
2010,04,02,11,48,21.70
2010,04,02,11,49,17.60
2010,04,02,11,50,14.80
2010,04,02,11,51,23.50
2010,04,02,11,52,27.90
2010,04,02,11,53,15.30
2010,04,02,11,54,17.30
2010,04,02,11,55,23.50
2010,04,02,11,56,20.70
2010,04,02,11,57,24.10
2010,04,02,11,58,18.30
2010,04,02,11,59,10.50
2010,04,02,12,00,23.30
2010,04,02,12,01,23.40
2010,04,02,12,02,15.50
2010,04,02,12,03,16.70
2010,04,02,12,04,10.10
2010,04,02,12,05,19.50
2010,04,02,12,06,28.30
2010,04,02,12,07,23.70
2010,04,02,12,08,20.00
2010,04,02,12,09,24.10
2010,04,02,12,10,25.10
2010,04,02,12,11,24.00
2010,04,02,12,12,22.20
2010,04,02,12,13,19.80
2010,04,02,12,14,16.20
2010,04,02,12,15,10.90
2010,04,02,12,16,21.20
2010,04,02,12,17,17.00
2010,04,02,12,18,17.80
2010,04,02,12,19,14.50
2010,04,02,12,20,21.90
2010,04,02,12,21,16.20
2010,04,02,12,22,10.60
2010,04,02,12,23,21.20
2010,04,02,12,24,17.50
2010,04,02,12,25,13.10
2010,04,02,12,26,16.70
2010,04,02,12,27,14.50
2010,04,02,12,28,18.70
2010,04,02,12,29,15.40
2010,04,02,12,30,17.30
2010,04,02,12,31,13.00
2010,04,02,12,32,15.40
2010,04,02,12,33,17.90
2010,04,02,12,34,16.90
2010,04,02,12,35,14.70
2010,04,02,12,36,13.50
2010,04,02,12,37,14.50
2010,04,02,12,38,17.00
2010,04,02,12,39,15.20
2010,04,02,12,40,20.70
2010,04,02,12,41,21.70
2010,04,02,12,42,14.60
2010,04,02,12,43,17.70
2010,04,02,12,44,12.50
2010,04,02,12,45,12.50
2010,04,02,12,46,14.20
2010,04,02,12,47,14.50
2010,04,02,12,48,3.80
2010,04,02,12,49,12.90
2010,04,02,12,50,18.30
2010,04,02,12,51,11.30
2010,04,02,12,52,19.80
2010,04,02,12,53,15.70
2010,04,02,12,54,16.50
2010,04,02,12,55,19.30
2010,04,02,12,56,8.80
2010,04,02,12,57,16.80
2010,04,02,12,58,15.90
2010,04,02,12,59,13.80
2010,04,02,13,00,9.60
2010,04,02,13,01,14.70
2010,04,02,13,02,17.20
2010,04,02,13,03,13.50
2010,04,02,13,04,14.40
2010,04,02,13,05,17.10
2010,04,02,13,06,14.20
2010,04,02,13,07,13.40
2010,04,02,13,08,20.00
2010,04,02,13,09,10.00
2010,04,02,13,10,13.40
2010,04,02,13,11,14.10
2010,04,02,13,12,11.60
2010,04,02,13,13,5.60
2010,04,02,13,14,17.60
2010,04,02,13,15,18.20
2010,04,02,13,16,24.10
2010,04,02,13,17,17.30
2010,04,02,13,18,11.40
2010,04,02,13,19,16.70
2010,04,02,13,20,8.40
2010,04,02,13,21,18.70
2010,04,02,13,22,13.50
2010,04,02,13,23,17.10
2010,04,02,13,24,14.00
2010,04,02,13,25,19.70
2010,04,02,13,26,17.50
2010,04,02,13,27,12.20
2010,04,02,13,28,25.20
2010,04,02,13,29,21.40
2010,04,02,13,30,26.20
2010,04,02,13,31,23.60
2010,04,02,13,32,11.00
2010,04,02,13,33,6.50
2010,04,02,13,34,13.00
2010,04,02,13,35,13.80
2010,04,02,13,36,15.90
2010,04,02,13,37,6.30
2010,04,02,13,38,15.40
2010,04,02,13,39,13.00
2010,04,02,13,40,17.90
2010,04,02,13,41,15.20
2010,04,02,13,42,17.70
2010,04,02,13,43,16.10
2010,04,02,13,44,10.90
2010,04,02,13,45,12.10
2010,04,02,13,46,9.60
2010,04,02,13,47,15.50
2010,04,02,13,48,20.80
2010,04,02,13,49,17.10
2010,04,02,13,50,19.80
2010,04,02,13,51,17.80
2010,04,02,13,52,7.90
2010,04,02,13,53,12.60
2010,04,02,13,54,20.80
2010,04,02,13,55,22.10
2010,04,02,13,56,15.40
2010,04,02,13,57,15.20
2010,04,02,13,58,13.00
2010,04,02,13,59,15.90
2010,04,02,14,00,13.70
2010,04,02,14,01,11.50
2010,04,02,14,02,14.50
2010,04,02,14,03,13.20
2010,04,02,14,04,12.70
2010,04,02,14,05,11.70
2010,04,02,14,06,13.00
2010,04,02,14,07,6.70
2010,04,02,14,08,10.80
2010,04,02,14,09,12.10
2010,04,02,14,10,6.40
2010,04,02,14,11,12.60
2010,04,02,14,12,11.90
2010,04,02,14,13,11.80
2010,04,02,14,14,10.70
2010,04,02,14,15,9.20
2010,04,02,14,16,15.00
2010,04,02,14,17,11.30
2010,04,02,14,18,6.90
2010,04,02,14,19,8.50
2010,04,02,14,20,14.10
2010,04,02,14,21,5.70
2010,04,02,14,22,7.80
2010,04,02,14,23,5.70
2010,04,02,14,24,11.10
2010,04,02,14,25,2.60
2010,04,02,14,26,0.60
2010,04,02,14,27,9.30
2010,04,02,14,28,11.00
2010,04,02,14,29,14.10
2010,04,02,14,30,8.00
2010,04,02,14,31,2.50
2010,04,02,14,32,9.30
2010,04,02,14,33,9.10
2010,04,02,14,34,7.20
2010,04,02,14,35,7.00
2010,04,02,14,36,12.90
2010,04,02,14,37,11.90
2010,04,02,14,38,10.20
2010,04,02,14,39,9.70
2010,04,02,14,40,15.70
2010,04,02,14,41,9.10
2010,04,02,14,42,5.40
2010,04,02,14,43,4.70
2010,04,02,14,44,10.30
2010,04,02,14,45,13.30
2010,04,02,14,46,11.20
2010,04,02,14,47,10.30
2010,04,02,14,48,9.50
2010,04,02,14,49,3.20
2010,04,02,14,50,12.00
2010,04,02,14,51,12.80
2010,04,02,14,52,20.20
2010,04,02,14,53,18.70
2010,04,02,14,54,8.90
2010,04,02,14,55,5.10
2010,04,02,14,56,7.10
2010,04,02,14,57,2.80
2010,04,02,14,58,6.70
2010,04,02,14,59,12.00
2010,04,02,15,00,6.00
2010,04,02,15,01,9.50
2010,04,02,15,02,3.60
2010,04,02,15,03,4.90
2010,04,02,15,04,13.60
2010,04,02,15,05,7.20
2010,04,02,15,06,9.50
2010,04,02,15,07,12.80
2010,04,02,15,08,9.90
2010,04,02,15,09,13.40
2010,04,02,15,10,6.90
2010,04,02,15,11,17.50
2010,04,02,15,12,12.20
2010,04,02,15,13,10.30
2010,04,02,15,14,11.50
2010,04,02,15,15,9.70
2010,04,02,15,16,9.40
2010,04,02,15,17,4.90
2010,04,02,15,18,11.90
2010,04,02,15,19,8.50
2010,04,02,15,20,16.00
2010,04,02,15,21,9.00
2010,04,02,15,22,10.30
2010,04,02,15,23,6.40
2010,04,02,15,24,9.10
2010,04,02,15,25,7.10
2010,04,02,15,26,12.30
2010,04,02,15,27,5.70
2010,04,02,15,28,8.70
2010,04,02,15,29,8.20
2010,04,02,15,30,15.00
2010,04,02,15,31,7.80
2010,04,02,15,32,11.20
2010,04,02,15,33,6.60
2010,04,02,15,34,6.60
2010,04,02,15,35,7.20
2010,04,02,15,36,9.00
2010,04,02,15,37,4.40
2010,04,02,15,38,6.80
2010,04,02,15,39,10.60
2010,04,02,15,40,8.00
2010,04,02,15,41,8.90
2010,04,02,15,42,8.50
2010,04,02,15,43,2.90
2010,04,02,15,44,4.30
2010,04,02,15,45,9.00
2010,04,02,15,46,7.50
2010,04,02,15,47,8.40
2010,04,02,15,48,9.60
2010,04,02,15,49,5.10
2010,04,02,15,50,6.10
2010,04,02,15,51,5.00
2010,04,02,15,52,8.60
2010,04,02,15,53,2.60
2010,04,02,15,54,8.40
2010,04,02,15,55,5.40
2010,04,02,15,56,8.90
2010,04,02,15,57,12.20
2010,04,02,15,58,7.30
2010,04,02,15,59,3.00
2010,04,02,16,00,7.10
2010,04,02,16,01,2.80
2010,04,02,16,02,12.70
2010,04,02,16,03,14.70
2010,04,02,16,04,9.50
2010,04,02,16,05,11.20
2010,04,02,16,06,12.70
2010,04,02,16,07,11.00
2010,04,02,16,08,8.10
2010,04,02,16,09,6.70
2010,04,02,16,10,15.50
2010,04,02,16,11,3.80
2010,04,02,16,12,4.20
2010,04,02,16,13,13.60
2010,04,02,16,14,6.30
2010,04,02,16,15,12.80
2010,04,02,16,16,6.90
2010,04,02,16,17,10.30
2010,04,02,16,18,3.60
2010,04,02,16,19,6.90
2010,04,02,16,20,3.40
2010,04,02,16,21,9.50
2010,04,02,16,22,1.60
2010,04,02,16,23,4.30
2010,04,02,16,24,8.90
2010,04,02,16,25,2.70
2010,04,02,16,26,3.40
2010,04,02,16,27,1.80
2010,04,02,16,28,7.50
2010,04,02,16,29,9.00
2010,04,02,16,30,10.20
2010,04,02,16,31,13.60
2010,04,02,16,32,9.70
2010,04,02,16,33,6.10
2010,04,02,16,34,3.40
2010,04,02,16,35,5.50
2010,04,02,16,36,12.30
2010,04,02,16,37,9.10
2010,04,02,16,38,7.50
2010,04,02,16,39,6.40
2010,04,02,16,40,3.40
2010,04,02,16,41,2.30
2010,04,02,16,42,10.70
2010,04,02,16,43,7.80
2010,04,02,16,44,5.50
2010,04,02,16,45,5.50
2010,04,02,16,46,7.10
2010,04,02,16,47,16.90
2010,04,02,16,48,16.80
2010,04,02,16,49,19.90
2010,04,02,16,50,11.60
2010,04,02,16,51,9.30
2010,04,02,16,52,4.40
2010,04,02,16,53,8.50
2010,04,02,16,54,4.10
2010,04,02,16,55,5.20
2010,04,02,16,56,12.40
2010,04,02,16,57,5.60
2010,04,02,16,58,7.40
2010,04,02,16,59,2.50
2010,04,02,17,00,9.70
2010,04,02,17,01,11.50
2010,04,02,17,02,5.10
2010,04,02,17,03,5.60
2010,04,02,17,04,10.40
2010,04,02,17,05,8.90
2010,04,02,17,06,4.20
2010,04,02,17,07,10.50
2010,04,02,17,08,3.10
2010,04,02,17,09,18.40
2010,04,02,17,10,9.00
2010,04,02,17,11,9.70
2010,04,02,17,12,9.30
2010,04,02,17,13,17.20
2010,04,02,17,14,11.90
2010,04,02,17,15,3.70
2010,04,02,17,16,10.00
2010,04,02,17,17,5.80
2010,04,02,17,18,11.40
2010,04,02,17,19,6.50
2010,04,02,17,20,16.60
2010,04,02,17,21,15.10
2010,04,02,17,22,9.70
2010,04,02,17,23,11.70
2010,04,02,17,24,8.50
2010,04,02,17,25,13.80
2010,04,02,17,26,13.90
2010,04,02,17,27,8.60
2010,04,02,17,28,4.10
2010,04,02,17,29,11.50
2010,04,02,17,30,8.40
2010,04,02,17,31,8.80
2010,04,02,17,32,12.60
2010,04,02,17,33,11.50
2010,04,02,17,34,8.80
2010,04,02,17,35,4.00
2010,04,02,17,36,10.70
2010,04,02,17,37,5.00
2010,04,02,17,38,7.20
2010,04,02,17,39,13.80